Location: Caracas
(10.5033°N, 66.8422°W)
Time: 23:40:49
(UTC-04:00)

ISS - Pass Details

Date: 19 November 2017
Orbit: 402 x 407 km, 51.6° (Epoch: 22 November)

Event Time Altitude Azimuth Distance (km) Brightness Sun altitude
Rises 19:07:50 0° 194° (SSW) 2,311 0.5 -16.3°
Reaches altitude 10° 19:10:12 10° 178° (S) 1,452 -0.8 -16.9°
Enters shadow 19:12:11 21° 142° (SE) 977 -2.1 -17.3°
